Location: *
(13.0000°N, 151.6000°E)
Time: 15:16:40
(UTC+00:00)

Cosmos 2237 Rocket - Pass Details

Date: 01 April 2020
Orbit: 833 x 851 km, 71.0° (Epoch: 03 June)

Event Time Altitude Azimuth Distance (km) Brightness Sun altitude
Rises 19:00:56 0° 332° (NNW) 3,398 5.1 -12.5°
Reaches altitude 10° 19:03:28 10° 326° (NW) 2,465 4.4 -11.9°
Maximum altitude 19:08:48 43° 256° (WSW) 1,171 2.5 -10.6°
Drops below altitude 10° 19:14:09 10° 185° (S) 2,470 4.5 -9.3°
Sets 19:16:42 0° 179° (S) 3,406 5.3 -8.7°
